Other Public Products
Issued by NWS Grand Forks, ND

Home | Current Version | Previous Version | Text Only | Print | Product List | Glossary Off
Versions: 1 2 3 4 5 6 7 8 9 10 11 12 13 14 15 16 17 18 19 20 21 22 23 24 25 26 27 28 29 30 31 32 33 34 35 36 37 38 39 40 41 42 43 44 45 46 47 48 49 50

000
FPUS83 KFGF 161631
OPUFGF
PRAIRIE TO PINES WEATHER ROUNDUP
NATIONAL WEATHER SERVICE EASTERN NORTH DAKOTA/GRAND FORKS ND
1100 AM CDT WED APR 16 2014

 **SATELLITE DATA USED TO AUGMENT SKY COVER AT AUTOMATED STATIONS**
 *****  WEATHER ACROSS EASTERN NORTH DAKOTA  *****

CITY           SKY/WX    TMP DP  RH WIND       PRES   REMARKS
GRAND FORKS    PTSUNNY   36  11  35 NE16      30.08R
GRAND FORKS AF CLOUDY    36  10  34 E15       30.12R
GRAND CITY NWS   N/A     37 N/A N/A E21         N/A
BUXTON           N/A     33  19  56 NE17        N/A  WCI  22
DEVILS LAKE    CLOUDY    32  10  40 E18       30.10R WCI  20
FARGO          CLOUDY    30  22  72 NE18      30.04R WCI  18
WAHPETON ARPT  CLOUDY    32  23  69 NE16G23   29.98R WCI  21
$$

 *****  WEATHER ACROSS CENTRAL AND WESTERN NORTH DAKOTA  *****

CITY           SKY/WX    TMP DP  RH WIND       PRES   REMARKS
JAMESTOWN      CLOUDY    28  21  75 NE20      30.02R WCI  15
BISMARCK       CLOUDY    29  22  75 NE18      30.05R WCI  16
MINOT          FLURRIES  24  18  77 NE10      30.13R WCI  14
MINOT AFB      MIX PCPN  25  18  74 E13       30.14R WCI  13
GARRISON         N/A     25  20  81 E14G20    30.08R WCI  13
WILLISTON      CLOUDY    26  21  81 E12       30.10R WCI  16
DICKINSON      CLOUDY    26  21  81 NE13      29.99R WCI  15
HETTINGER      CLOUDY    29  20  69 NE13      29.97R WCI  19
$$

 *****  OTHER OBSERVATIONS NORTHEAST NORTH DAKOTA  *****

CITY           SKY/WX    TMP DP  RH WIND       PRES   REMARKS
WALHALLA         N/A     32   7  34 NE16G23   30.20R WCI  21
LANGDON        FAIR      32   9  37 E17G23    30.13R WCI  21
CAVALIER       FAIR      32   9  37 NE17      30.19R WCI  21
GRAFTON        FAIR      34  10  37 E16       30.16R WCI  23
CANDO          CLOUDY    32  12  43 NE13G21   30.14R WCI  22
FORT TOTTEN    NOT AVBL
ROLLA          PTSUNNY   28  14  54 NE18      30.15R WCI  16
RUGBY          PTSUNNY   28  16  59 NE18      30.13R WCI  16
 ***** THE ABOVE OBSERVATIONS ARE NON NWS ARE NOT QUALITY
        CONTROLLED AND MAY MIS-REPORT RAIN FOR SNOW...
$$

 *****  OTHER OBSERVATIONS SOUTHEAST NORTH DAKOTA *****

CITY           SKY/WX    TMP DP  RH WIND       PRES   REMARKS
COOPERSTOWN    CLOUDY    28  19  69 E21G26    30.05S WCI  15
VALLEY CITY    NOT AVBL
OAKES          CLOUDY    30  25  80 NE22G28   29.97R WCI  17
GWINNER        CLOUDY    32  27  80 NE20G29   29.99R WCI  20
BUFFALO          N/A     29  18  63 NE23        N/A  WCI  16
WYNDMERE       NOT AVBL
 ***** THE ABOVE OBSERVATIONS ARE NON NWS ARE NOT QUALITY
       CONTROLLED AND MAY MIS-REPORT RAIN FOR SNOW...
$$

  *****  WEATHER ACROSS NORTHERN MINNESOTA  *****

CITY           SKY/WX    TMP DP  RH WIND       PRES   REMARKS
FLAG ISLAND    SUNNY     27   3  36 SE6       30.22S WCI  20
WARROAD        SUNNY     27  14  59 NE13      30.21R WCI  16
ROSEAU         SUNNY     30  10  43 E16       30.19R WCI  19
HALLOCK        CLOUDY    32   9  37 NE15      30.18R WCI  22
THF RVR FALLS  SUNNY     34   7  32 E16G24    30.12S WCI  23
HALSTAD          N/A     33  16  49 E22         N/A  WCI  21
FOSSTON        MOSUNNY   36  16  44 E14G26    30.07R
BAUDETTE       MOSUNNY   31   7  36 E15       30.18S WCI  20
WASKISH        CLOUDY    36   7  30 NE14G21   30.13F
CROOKSTON      MOSUNNY   36  10  35 E18       30.12R
$$
  *****  WEATHER ACROSS CENTRAL AND WEST MINNESOTA  *****

CITY           SKY/WX    TMP DP  RH WIND       PRES   REMARKS
BEMIDJI        PTSUNNY   32  13  46 E15G23    30.09R WCI  21
PARK RAPIDS    FLURRIES  27  21  78 E12G23    30.03R WCI  17
WADENA         LGT SNOW  27  21  80 E13G23    29.99R WCI  16
DETROIT LAKES  MIX PCPN  30  23  74 E17G23    30.01S WCI  18
MOORHEAD       PTSUNNY   30  27  86 E15       30.04R WCI  19
FERGUS FALLS   FLURRIES  28  21  74 E22G32    29.94S WCI  15
ELBOW LAKE     LGT SNOW  28  26  91 E17G25    29.92S VSB 3/4 WCI  15
MORRIS MN      SNOW      28  27  93 E21G26    29.88R VSB 1/4 WCI  15
STAPLES        LGT SNOW  27  23  86 NE8G18    29.99S VSB 1   WCI  18
WHEATON        LGT SNOW  30  28  93 NE12G23   29.95R WCI  21
$$
  *****  WEATHER ELSEWHERE ACROSS MINNESOTA  *****

CITY           SKY/WX    TMP DP  RH WIND       PRES   REMARKS
DULUTH         LGT SNOW  25  21  85 E16       30.13S VSB 3/4 WCI  12
INTRNTL FALLS  MOSUNNY   30   5  34 E12       30.19S WCI  20
ELY            PTSUNNY   30  10  43 SE12      30.16F WCI  21
CLOQUET        LGT SNOW  27  23  86 E13G22    30.11S VSB 1   WCI  16
BRAINERD       SNOW      31  23  72 E15G23    30.02S VSB 1/2 WCI  20
HIBBING        CLOUDY    31  12  45 E14G21    30.13S WCI  21
ALEXANDRIA     SNOW      27  25  93 NE22G29   29.92R VSB 1/4 WCI  12
SAINT CLOUD    SNOW      29  26  89 E10G21    29.93F VSB 1/4 WCI  20
MINNEAPOLIS    CLOUDY    34  27  75 E18       29.92F WCI  23
$$

  *****  WEATHER ACROSS SOUTH DAKOTA  *****

CITY           SKY/WX    TMP DP  RH WIND       PRES   REMARKS
SIOUX FALLS    LGT RAIN  43  34  70 S20G25    29.60F
BROOKINGS      NOT AVBL
WATERTOWN      SNOW      27  25  92 NE18      29.78R VSB 1/4 WCI  14
HURON          HVY SNOW  30  28  92 N16       29.76R VSB 1/4 WCI  19
SISSETON         N/A     28  27  96 E20G26    29.91R WCI  15
ABERDEEN       CLOUDY    29  25  85 NE24G30   29.90R WCI  15
MITCHELL       CLOUDY    40  32  73 N24G33    29.67R
PIERRE         CLOUDY    31  27  85 N16       29.87R WCI  20
MOBRIDGE       CLOUDY    30  24  78 NE16      29.92R WCI  19
RAPID CITY     PTSUNNY   36  29  75 N24G30    29.89R
$$

  *****  SOME WEATHER IN NEARBY STATES *****

CITY           SKY/WX    TMP DP  RH WIND       PRES   REMARKS
GLASGOW MT     CLOUDY    30  22  72 NE8       30.06R WCI  22
GREAT FALLS MT CLOUDY    36  32  85 NW5       29.97R
CHEYENNE WY    MOSUNNY   39  23  52 NW25G36   29.92R
SCOTTSBLUFF NE PTSUNNY   46  30  53 NW26G32   29.90R
OMAHA NE       CLOUDY    55  27  34 S29G37    29.73F
DES MOINES IA  CLOUDY    58  28  32 S28G35    29.87F
DAVENPORT IA   MOSUNNY   46  29  51 SE23G33   30.13F
CHICAGO IL     CLOUDY    43  22  43 S20       30.28F
EAU CLAIRE WI  CLOUDY    33  25  72 E10       30.03S WCI  25
LA CROSSE WI   CLOUDY    46  24  42 SE17G23   30.00F
$$

  *****  SOME NATIONAL WEATHER *****

CITY           SKY/WX    TMP DP  RH WIND       PRES   REMARKS
LA GUARDIA NY  MOSUNNY   39  15  37 NW14G23   30.38R
RALEIGH NC     SUNNY     46  23  40 N12G22    30.40S
ATLANTA GA     SUNNY     50  27  40 E10       30.30R
NEW ORLEANS LA MOSUNNY   57  41  55 NE7G16    30.24S
OKLAHOMA CITY  MOSUNNY   60  26  27 S29G39    29.97R
ALBUQUERQUE NM SUNNY     58  10  15 SW7       29.93R
SALT LAKE CITY PTSUNNY   50  22  33 N7        30.01S
LOS ANGELES CA PTSUNNY   61  51  70 NE3       29.87S
BOISE ID       PTSUNNY   46  20  35 VRB3      30.07S
SEATTLE WA     LGT RAIN  49  45  86 S10       30.06F
$$

*** WEATHER ACROSS MANITOBA...SASKATCHEWAN AND ONTARIO ***
                ***ONTARIO***

CITY           SKY/WX    TMP DP  RH WIND       PRES   REMARKS
GERALDTON      MOSUNNY   23   1  39 NW7       30.24  WCI  15
THUNDER BAY    PTSUNNY   30   5  34 E7        30.30S WCI  23
SIOUX LOOKOUT  PTSUNNY   23   1  39 NW5       30.26R WCI  17
TORONTO        PTSUNNY   32  14  47 W9        30.48S WCI  24
BIG TROUT LK   PTSUNNY    7  -2  66 NW13G20   30.28R WCI  -9
PICKLE LAKE    MOSUNNY   18   0  45 NW6       30.25R WCI   9
DRYDEN         SUNNY     25  -2  30 E6        30.23F WCI  18
KENORA         MOSUNNY   27   0  31 N8        30.24  WCI  18
$$
                *** MANITOBA***

CITY           SKY/WX    TMP DP  RH WIND       PRES   REMARKS
BRANDON        CLOUDY    23   7  50 NE18      30.26R WCI   9
DAUPHIN        SUNNY     21   7  53 NE7       30.35R WCI  13
ISLAND LAKE    MOSUNNY   12   1  62 W5        30.37S WCI   4
PILOT MOUND      N/A     28   9  43 NE16G22     N/A  WCI  17
THE PAS        SUNNY     14   1  57 N7        30.42R WCI   4
THOMPSON       MOSUNNY   10  -2  56 NW9       30.43R WCI  -2
WINNIPEG       MOSUNNY   27  14  59 N9        30.28R WCI  17
LYNN LAKE      SUNNY     12  -2  52 N10       30.43S WCI  -1
CHURCHILL      CRYSTALS   3  -4  72 NW16G22   30.31S WCI -16
GILLAM         MOSUNNY    5  -6  61 W8        30.37S WCI  -8
$$
                ***SASKATCHEWAN***

CITY           SKY/WX    TMP DP  RH WIND       PRES   REMARKS
ESTEVAN        LGT SNOW  23  18  80 E20       30.17R DRFTSNOWWCI   8
KINDERSLEY     FLURRIES  23  19  86 E14       30.11S WCI  11
LLOYDMINSTER   PTSUNNY   25  19  80 SE14      30.16S WCI  13
PRINCE ALBERT  MOSUNNY   21   5  49 E12       30.32R WCI   9
REGINA         PTSUNNY   25  18  74 E20G25    30.20R WCI  11
YORKTON        SUNNY     25   7  46 E10       30.28R WCI  15



USA.gov is the U.S. government's official web portal to all federal, state and local government web resources and services.